Location: Augustenthal
(51.7167°N, 10.2833°E)
Time: 04:32:49
(UTC+00:00)

SJ 16-02 - Pass Details

Date: 18 May 2021
Orbit: 606 x 616 km, 75.0° (Epoch: 14 June)

Event Time Altitude Azimuth Distance (km) Brightness Sun altitude
Rises 19:44:11 0° 200° (SSW) 2,877 4.6 -5.0°
Reaches altitude 10° 19:46:25 10° 200° (SSW) 1,976 3.7 -5.3°
Maximum altitude 19:50:50 86° 114° (ESE) 626 1.4 -5.8°
Drops below altitude 10° 19:55:18 10° 24° (NNE) 1,990 4.2 -6.3°
Sets 19:57:33 0° 24° (NNE) 2,899 5.1 -6.5°
